Погода Дно

Погода Дно : погода сейчас, прогноз погоды и архив. Всё, что Вы хотите узнать о погоде Дно!

Поиск расширенной информации на нашем сайте:

Другие новости

Новости СМИ2

Главная страница сайта

Новости сайта

03.07.2017

Напоминаем, что на нашем специализированном сайте Метеоцентр.Азия вы можете получить высокодетализированные автоматические прогнозы погоды по пунктам России, СНГ и мира в авиационном формате (включающие направление и скорость ветра, видимость, явления погоды, количество и форму облачности, нижнюю и верхнюю границу облачности).

Рекомендуем: интим магазин в йошкар оле

Погода Дно - сегодня

Время (UTC), дата Ветер
(°,м/с) 
Видим.   Явления Облачность Т
(°С)
Тd
(°С)
f(%) Тe
(°С)
Pmin
(гПа)
dP
(гПа)
Po
(мм)
O2
(г/м3)
Тmin Tmax R s Состояние
почвы
09 14.06.18 120 (ЮВ) н/о    н/о 
+17.7 +9.8 60 +19  1014.2  0.8  755  284           
12 14.06.18 110 (В) н/о    н/о 
+19.4 +12.2 63 +24  1014.1  0.1  755  282           
15 14.06.18 310 (СЗ) н/о    н/о 
+13.1 +12.1 94 +17  1015.1  0.8  755  288           
21 14.06.18 150 (ЮВ) н/о    н/о 
+12.4 +11.7 95 +16  1015.6  0.8  756  289           
00 15.06.18 160 (Ю) н/о    н/о 
+11.2 +10.5 95 +14  1016.5  0.9  757  291           
03 15.06.18 160 (Ю) н/о    н/о 
+12 +10.1 88 +13  1017.1  0.6  757  290  +10.7         
09 15.06.18 150 (ЮВ) н/о    н/о 
+20.7 +10 50 +22  1017.7  0.1  758  282           
12 15.06.18 150 (ЮВ) н/о    н/о 
+23.3 +8.5 39 +23  1017.4  -0.3  757  280           
15 15.06.18 140 (ЮВ) н/о    н/о 
+23.7 +7.9 36 +24  1016.7  -0.7  757  279           
21 15.06.18 тихо ()   н/о    н/о 
+8.6 +8.3 98 +9  1018  0.7  758  294           
00 16.06.18 тихо ()   н/о    н/о 
+5.2 +5.1 99 +5  1018.7  0.6  758  299           
03 16.06.18 тихо ()   н/о    н/о 
+12.3 +12.2 99 +16  1019.1  0.6  758  290  +4.6         
09 16.06.18 140 (ЮВ) н/о    н/о 
+22.3 +8.3 41 +22  1019.3  0.2  759  281           
12 16.06.18 170 (Ю) н/о    н/о 
+20.7 +8.2 45 +21  1019.2  -0.2  759  283           
15 16.06.18 120 (ЮВ) н/о    н/о 
+19.7 +9 50 +21  1019  -0.2  759  284           
21 16.06.18 тихо ()   н/о    н/о 
+11.8 +11.2 96 +14  1018.6  -0.9  758  291           
00 17.06.18 040 (СВ) н/о    н/о 
+13.1 +12.1 94 +18  1018.4  -0.2  758  289           
03 17.06.18 090 (В) н/о    н/о 
+14.4 +12.2 87 +20  1018.1  -0.2  758  288  +11.6         
09 17.06.18 110 (В) н/о    н/о 
+19.3 +15.2 77 +29  1017.7  -0.2  758  282           
12 17.06.18 140 (ЮВ) н/о    н/о 
+19.3 +14.6 74 +28  1017.6  0.1  758  282           
15 17.06.18 110 (В) н/о    н/о 
+18.6 +14.6 78 +28  1017  -0.6  757  283           
21 17.06.18 тихо ()   н/о    н/о 
+14.9 +14.5 97 +22  1016.5  -0.3  757  286           
00 18.06.18 тихо ()   н/о    н/о 
+13.2 +13.1 99 +19  1015.8  -0.7  756  288           
03 18.06.18 270 (З) н/о    н/о 
+13.5 +13.5 100 +21  1015.6  -0.2  756  288  +11.3         
09 18.06.18 260 (З) н/о    н/о 
+22 +14.6 63 +30  1015  0.1  756  279           
Время (UTC), дата Ветер
(°,м/с) 
Видим.   Явления Облачность Т
(°С)
Тd
(°С)
f(%) Тe
(°С)
Pmin
(гПа)
dP
(гПа)
Po
(мм)
O2
(г/м3)
Тmin Tmax R s Состояние
почвы

Для получения пояснительной информации подведите курсор к названию столбца.

ПОГОДА Дно - архив

Всё, что Вы хотите узнать о погоде Дно - удобно и подробно!

Выберите нужную дату (начиная с 1 января 2015* года) и нажмите кнопку "Найти".
Будут отображены архивные сводки погоды по пункту Дно, начиная с указанной даты.


Отображать данные в формате CSV (для использования в таблицах Excel)


Внимание! Наш архив погоды предназначен исключительно для личного некоммерческого использования в познавательных целях. Если Вам необходимы официальные справки о состоянии погоды (для производственных, юридических, коммерческих и т.п. целей), обращайтесь в органы Росгидромета.

*Примечание: данная дата относится к архиву по метеостанциям СССР (Россия, СНГ, Балтия).
Архив по метеостанциям Зарубежной Европы и Азии (кроме Китая) хранится 10 дней, по другим регионам земного шара (Китай, Африка, Америка, Австралия, Океания) - 1 день.

Дно - район местоположения метеостанции


Название, широта, долгота, высота метеостанции:
Дно 57.8°ш. 29.9°д. 71 м над ур. моря [Российская Федерация]

Дополнительная информация

В oтличие oт бoльшинства пoгoдных сайтoв мы публикуем пoдрoбную метеoинфoрмацию в детальнoм прoфессиoнальнoм фoрмате.

Характеристики температуры и влажнoсти вoздуха измеряются на высoте 2 м в тени вдали oт зданий и деревьев.
Скoрoсть ветра измеряется на высoте 10 м (на урoвне рoста челoвека скoрoсть ветра ниже в 1.5-2 раза). Если метеoстанция нахoдится в гoрoде или в лесу, тo скoрoсть ветра занижена на 2-4 м/с пo сравнению с oткрытым местoм. Скoрoсть ветра над акватoриями крупных рек и oзёр, а также на вершинах хoлмoв на 2-5 м/с выше, чем в oбычных услoвиях.
Атмoсфернoе давление в разных тoчках местнoсти мoжет значительнo oтличаться oт давления на метеoстанции, в зависимoсти oт услoвий рельефа (при пoдъёме на 10 м давление пoнижается примернo на 1 мм рт.ст.).